| time (UTC) | temp F | wind direction | speed knots | gust knots | rain 1hr in | rain 24hr in | rain mn in | humidity % | barometer mb |
| 20260508050304 | 53 | 241 | 6.1 | 11.3 | 0.00 | 0.14 | 0.00 | 86 | 1008.7 |
| 20260508045805 | 53 | 248 | 7.8 | 13.9 | 0.00 | 0.14 | 0.00 | 86 | 1008.7 |
| 20260508044805 | 53 | 237 | 6.1 | 12.2 | 0.00 | 0.14 | 0.00 | 86 | 1008.7 |
| 20260508044305 | 53 | 242 | 7.8 | 12.2 | 0.00 | 0.14 | 0.00 | 86 | 1008.7 |
| 20260508043305 | 53 | 248 | 7.8 | 13.0 | 0.00 | 0.14 | 0.00 | 86 | 1008.6 |
| 20260508040305 | 54 | 237 | 7.0 | 11.3 | 0.00 | 0.14 | 0.00 | 87 | 1008.7 |
| 20260508034805 | 53 | 234 | 7.0 | 10.4 | 0.00 | 0.14 | 0.14 | 92 | 1008.8 |
| 20260508033804 | 52 | 190 | 4.3 | 7.8 | 0.00 | 0.14 | 0.14 | 92 | 1008.7 |
| 20260508033304 | 52 | 204 | 4.3 | 8.7 | 0.00 | 0.14 | 0.14 | 92 | 1008.8 |
| 20260508032306 | 52 | 195 | 4.3 | 8.7 | 0.00 | 0.14 | 0.14 | 92 | 1009.0 |
| 20260508030805 | 51 | 187 | 5.2 | 8.7 | 0.00 | 0.14 | 0.14 | 91 | 1008.8 |
| 20260508025306 | 51 | 178 | 2.6 | 4.3 | 0.00 | 0.14 | 0.14 | 90 | 1008.9 |
| 20260508023805 | 52 | 190 | 2.6 | 7.0 | 0.00 | 0.14 | 0.14 | 90 | 1008.9 |
| 20260508021805 | 51 | 194 | 4.3 | 8.7 | 0.00 | 0.14 | 0.14 | 90 | 1009.1 |
| 20260508021305 | 51 | 194 | 5.2 | 10.4 | 0.00 | 0.14 | 0.14 | 89 | 1009.0 |
| 20260508015804 | 51 | 196 | 4.3 | 10.4 | 0.00 | 0.14 | 0.14 | 89 | 1008.9 |
| 20260508015306 | 51 | 190 | 3.5 | 6.1 | 0.00 | 0.14 | 0.14 | 89 | 1008.8 |
| 20260508012804 | 52 | 186 | 5.2 | 10.4 | 0.00 | 0.14 | 0.14 | 88 | 1008.6 |
| 20260508011804 | 51 | 191 | 5.2 | 10.4 | 0.00 | 0.14 | 0.14 | 88 | 1008.6 |
| 20260508010804 | 51 | 196 | 5.2 | 10.4 | 0.00 | 0.14 | 0.14 | 88 | 1008.4 |
| 20260508004304 | 52 | 190 | 7.0 | 11.3 | 0.00 | 0.14 | 0.14 | 88 | 1008.5 |
| 20260508002306 | 52 | 201 | 5.2 | 8.7 | 0.00 | 0.14 | 0.14 | 81 | 1008.1 |
| 20260508000804 | 52 | 188 | 4.3 | 10.4 | 0.00 | 0.14 | 0.14 | 76 | 1008.2 |
| 20260508000305 | 52 | 200 | 6.1 | 10.4 | 0.00 | 0.14 | 0.14 | 74 | 1008.2 |
| 20260507235804 | 52 | 195 | 5.2 | 7.8 | 0.00 | 0.14 | 0.14 | 76 | 1008.4 |
| 20260507235307 | 52 | 200 | 5.2 | 8.7 | 0.00 | 0.14 | 0.14 | 77 | 1008.4 |
| 20260507234804 | 52 | 197 | 5.2 | 8.7 | 0.00 | 0.14 | 0.14 | 79 | 1008.4 |
| 20260507233804 | 52 | 188 | 5.2 | 10.4 | 0.00 | 0.14 | 0.14 | 80 | 1008.2 |
| 20260507233304 | 52 | 185 | 5.2 | 8.7 | 0.00 | 0.14 | 0.14 | 81 | 1008.0 |
| 20260507232804 | 53 | 195 | 4.3 | 7.8 | 0.00 | 0.14 | 0.14 | 81 | 1007.8 |
| 20260507232306 | 53 | 190 | 5.2 | 7.8 | 0.00 | 0.14 | 0.14 | 81 | 1007.9 |
| 20260507231804 | 53 | 190 | 4.3 | 7.8 | 0.00 | 0.14 | 0.14 | 80 | 1007.9 |
| 20260507225306 | 54 | 194 | 4.3 | 11.3 | 0.00 | 0.14 | 0.14 | 80 | 1007.7 |
| 20260507224804 | 54 | 200 | 6.1 | 10.4 | 0.00 | 0.14 | 0.14 | 81 | 1007.7 |
| 20260507223804 | 54 | 180 | 4.3 | 8.7 | 0.00 | 0.14 | 0.14 | 81 | 1007.9 |
| 20260507222804 | 54 | 187 | 7.8 | 11.3 | 0.00 | 0.14 | 0.14 | 81 | 1007.8 |
| 20260507221804 | 54 | 197 | 6.1 | 13.0 | 0.00 | 0.14 | 0.14 | 80 | 1008.4 |
| 20260507221304 | 54 | 188 | 7.0 | 11.3 | 0.00 | 0.14 | 0.14 | 80 | 1008.2 |
| 20260507220304 | 55 | 182 | 4.3 | 10.4 | 0.00 | 0.14 | 0.14 | 81 | 1008.1 |
| 20260507215804 | 55 | 185 | 4.3 | 8.7 | 0.00 | 0.14 | 0.14 | 82 | 1008.0 |
| 20260507215307 | 54 | 177 | 5.2 | 6.1 | 0.00 | 0.14 | 0.14 | 83 | 1007.9 |
| 20260507214807 | 54 | 181 | 4.3 | 7.8 | 0.00 | 0.14 | 0.14 | 83 | 1007.8 |
| 20260507213307 | 55 | 188 | 5.2 | 8.7 | 0.00 | 0.14 | 0.14 | 83 | 1008.1 |
| 20260507211307 | 55 | 189 | 5.2 | 10.4 | 0.00 | 0.14 | 0.14 | 83 | 1007.8 |
| 20260507210307 | 56 | 180 | 4.3 | 7.0 | 0.00 | 0.14 | 0.14 | 82 | 1007.5 |
| 20260507204807 | 55 | 179 | 4.3 | 10.4 | 0.00 | 0.14 | 0.14 | 83 | 1007.5 |
| 20260507204307 | 55 | 183 | 4.3 | 10.4 | 0.00 | 0.14 | 0.14 | 83 | 1007.7 |
| 20260507203807 | 55 | 180 | 4.3 | 8.7 | 0.00 | 0.14 | 0.14 | 83 | 1007.6 |
| 20260507202807 | 54 | 161 | 4.3 | 8.7 | 0.00 | 0.14 | 0.14 | 84 | 1007.5 |
| 20260507201807 | 54 | 151 | 5.2 | 8.7 | 0.00 | 0.14 | 0.14 | 84 | 1007.3 |
| 20260507201307 | 54 | 147 | 5.2 | 8.7 | 0.00 | 0.14 | 0.14 | 83 | 1007.4 |
| 20260507200807 | 54 | 156 | 5.2 | 7.8 | 0.00 | 0.14 | 0.14 | 84 | 1007.6 |
| 20260507200307 | 54 | 153 | 4.3 | 7.8 | 0.00 | 0.14 | 0.14 | 84 | 1007.4 |
| 20260507195307 | 53 | 151 | 5.2 | 7.8 | 0.00 | 0.14 | 0.14 | 83 | 1007.4 |
| 20260507194307 | 54 | 155 | 4.3 | 7.0 | 0.00 | 0.14 | 0.14 | 82 | 1007.7 |
| 20260507193807 | 54 | 161 | 4.3 | 7.8 | 0.00 | 0.14 | 0.14 | 81 | 1007.7 |
| 20260507192807 | 55 | 157 | 4.3 | 7.8 | 0.00 | 0.14 | 0.14 | 80 | 1008.2 |
| 20260507192307 | 55 | 179 | 3.5 | 7.8 | 0.00 | 0.14 | 0.14 | 80 | 1008.3 |
| 20260507190807 | 55 | 159 | 5.2 | 7.8 | 0.00 | 0.14 | 0.14 | 78 | 1008.1 |
| 20260507190307 | 56 | 156 | 5.2 | 7.8 | 0.00 | 0.14 | 0.14 | 76 | 1008.0 |
| 20260507185307 | 59 | 127 | 0.9 | 4.3 | 0.00 | 0.14 | 0.14 | 76 | 1007.8 |
| 20260507184807 | 58 | 156 | 1.7 | 4.3 | 0.00 | 0.14 | 0.14 | 78 | 1007.9 |
| 20260507183306 | 57 | 149 | 2.6 | 5.2 | 0.00 | 0.14 | 0.14 | 77 | 1008.7 |
| 20260507182807 | 56 | 142 | 5.2 | 7.0 | 0.00 | 0.14 | 0.14 | 75 | 1008.6 |
| 20260507182307 | 59 | 148 | 4.3 | 5.2 | 0.00 | 0.14 | 0.14 | 71 | 1008.6 |
| 20260507181807 | 60 | 148 | 1.7 | 2.6 | 0.00 | 0.14 | 0.14 | 70 | 1008.5 |
| 20260507180807 | 61 | 117 | 0.9 | 2.6 | 0.00 | 0.14 | 0.14 | 67 | 1008.7 |
| 20260507175807 | 61 | 108 | 0.9 | 4.3 | 0.00 | 0.14 | 0.14 | 67 | 1008.6 |
| 20260507174806 | 61 | 160 | 1.7 | 2.6 | 0.00 | 0.14 | 0.14 | 67 | 1008.5 |
| 20260507174307 | 62 | 127 | 1.7 | 2.6 | 0.00 | 0.14 | 0.14 | 65 | 1008.4 |
| 20260507173807 | 62 | 102 | 1.7 | 2.6 | 0.00 | 0.14 | 0.14 | 65 | 1008.5 |
| 20260507170309 | 60 | 141 | 0.9 | 1.7 | 0.00 | 0.14 | 0.14 | 72 | 1009.2 |
| 20260507165807 | 59 | 133 | 1.7 | 2.6 | 0.00 | 0.14 | 0.14 | 72 | 1009.4 |
| 20260507164807 | 59 | 113 | 1.7 | 2.6 | 0.00 | 0.14 | 0.14 | 72 | 1009.5 |
| 20260507161806 | 57 | 20 | 2.6 | 6.1 | 0.00 | 0.14 | 0.14 | 65 | 1009.8 |
| 20260507160806 | 57 | 1 | 2.6 | 6.1 | 0.00 | 0.14 | 0.14 | 67 | 1010.0 |
| 20260507160307 | 57 | 334 | 2.6 | 5.2 | 0.00 | 0.14 | 0.14 | 68 | 1010.0 |
| 20260507155806 | 56 | 336 | 2.6 | 5.2 | 0.00 | 0.14 | 0.14 | 69 | 1010.0 |
| 20260507154307 | 56 | 358 | 3.5 | 6.1 | 0.00 | 0.14 | 0.14 | 71 | 1010.2 |
| 20260507153807 | 55 | 346 | 6.1 | 10.4 | 0.00 | 0.14 | 0.14 | 71 | 1010.1 |
| 20260507152307 | 55 | 354 | 5.2 | 8.7 | 0.00 | 0.14 | 0.14 | 74 | 1010.2 |
| 20260507151807 | 55 | 356 | 4.3 | 7.8 | 0.00 | 0.14 | 0.14 | 76 | 1010.5 |
| 20260507151306 | 55 | 334 | 4.3 | 7.0 | 0.00 | 0.14 | 0.14 | 76 | 1010.6 |
| 20260507150807 | 55 | 330 | 4.3 | 7.0 | 0.00 | 0.14 | 0.14 | 77 | 1010.5 |
| 20260507150306 | 55 | 307 | 2.6 | 6.1 | 0.00 | 0.14 | 0.14 | 77 | 1010.7 |
| 20260507145307 | 55 | 329 | 2.6 | 7.8 | 0.00 | 0.14 | 0.14 | 78 | 1010.6 |
| 20260507142807 | 54 | 3 | 6.1 | 11.3 | 0.00 | 0.14 | 0.14 | 81 | 1010.7 |
| 20260507142307 | 54 | 329 | 4.3 | 8.7 | 0.00 | 0.14 | 0.14 | 81 | 1010.6 |
| 20260507140806 | 53 | 338 | 5.2 | 10.4 | 0.00 | 0.14 | 0.14 | 82 | 1010.5 |
| 20260507140306 | 53 | 0 | 6.1 | 10.4 | 0.00 | 0.14 | 0.14 | 82 | 1010.6 |
| 20260507134806 | 53 | 344 | 3.5 | 8.7 | 0.00 | 0.14 | 0.14 | 83 | 1010.5 |
| 20260507134307 | 53 | 339 | 4.3 | 10.4 | 0.00 | 0.14 | 0.14 | 84 | 1010.6 |
| 20260507133307 | 53 | 336 | 4.3 | 8.7 | 0.00 | 0.14 | 0.14 | 84 | 1010.6 |
| 20260507132807 | 53 | 351 | 5.2 | 10.4 | 0.00 | 0.14 | 0.14 | 84 | 1010.6 |
| 20260507132307 | 53 | 322 | 4.3 | 10.4 | 0.00 | 0.14 | 0.14 | 84 | 1010.6 |
| 20260507131306 | 53 | 355 | 7.0 | 12.2 | 0.00 | 0.14 | 0.14 | 84 | 1010.4 |
| 20260507125806 | 53 | 350 | 5.2 | 11.3 | 0.00 | 0.14 | 0.14 | 85 | 1010.5 |
| 20260507124306 | 52 | 339 | 5.2 | 10.4 | 0.00 | 0.14 | 0.14 | 85 | 1010.6 |
| 20260507123806 | 52 | 339 | 5.2 | 10.4 | 0.00 | 0.14 | 0.14 | 85 | 1010.3 |
| 20260507122307 | 52 | 340 | 6.1 | 10.4 | 0.00 | 0.14 | 0.14 | 85 | 1010.4 |
| 20260507121306 | 52 | 0 | 3.5 | 7.0 | 0.00 | 0.14 | 0.14 | 86 | 1010.4 |
| 20260507115806 | 52 | 323 | 3.5 | 7.8 | 0.00 | 0.14 | 0.14 | 85 | 1010.7 |
| 20260507114308 | 52 | 2 | 5.2 | 8.7 | 0.00 | 0.14 | 0.14 | 85 | 1010.3 |
| 20260507113806 | 52 | 3 | 2.6 | 6.1 | 0.00 | 0.14 | 0.14 | 86 | 1010.2 |
| 20260507112308 | 52 | 355 | 4.3 | 7.8 | 0.00 | 0.14 | 0.14 | 86 | 1010.0 |
| 20260507110806 | 52 | 333 | 6.1 | 11.3 | 0.00 | 0.14 | 0.14 | 87 | 1010.0 |
| 20260507110307 | 52 | 331 | 5.2 | 13.0 | 0.00 | 0.14 | 0.14 | 87 | 1009.9 |
| 20260507105807 | 52 | 355 | 7.8 | 13.0 | 0.00 | 0.14 | 0.14 | 87 | 1009.9 |
| 20260507105307 | 52 | 351 | 5.2 | 12.2 | 0.00 | 0.14 | 0.14 | 88 | 1009.9 |
| 20260507104807 | 52 | 330 | 4.3 | 8.7 | 0.00 | 0.14 | 0.14 | 88 | 1009.9 |
| 20260507104308 | 52 | 4 | 5.2 | 10.4 | 0.00 | 0.14 | 0.14 | 87 | 1009.9 |
| 20260507102806 | 52 | 315 | 6.1 | 10.4 | 0.00 | 0.14 | 0.14 | 88 | 1009.7 |
| 20260507102307 | 52 | 343 | 5.2 | 10.4 | 0.00 | 0.14 | 0.14 | 88 | 1009.5 |
| 20260507101806 | 52 | 337 | 5.2 | 10.4 | 0.00 | 0.14 | 0.14 | 88 | 1009.3 |
| 20260507100307 | 52 | 341 | 4.3 | 10.4 | 0.00 | 0.14 | 0.14 | 89 | 1009.3 |
| 20260507095306 | 52 | 350 | 5.2 | 11.3 | 0.00 | 0.14 | 0.14 | 89 | 1009.0 |
| 20260507094306 | 52 | 337 | 4.3 | 10.4 | 0.00 | 0.14 | 0.14 | 89 | 1008.9 |
| 20260507093806 | 52 | 340 | 5.2 | 10.4 | 0.00 | 0.14 | 0.14 | 89 | 1009.0 |
| 20260507093306 | 53 | 350 | 5.2 | 10.4 | 0.00 | 0.14 | 0.14 | 89 | 1008.8 |
| 20260507092807 | 53 | 336 | 5.2 | 10.4 | 0.00 | 0.14 | 0.14 | 89 | 1008.8 |
| 20260507091806 | 53 | 350 | 7.8 | 13.0 | 0.00 | 0.14 | 0.14 | 89 | 1008.7 |
| 20260507090307 | 53 | 343 | 6.1 | 13.9 | 0.00 | 0.14 | 0.14 | 89 | 1008.8 |
| 20260507084807 | 53 | 343 | 7.8 | 13.9 | 0.00 | 0.14 | 0.14 | 90 | 1008.3 |
| 20260507084306 | 53 | 341 | 12.2 | 18.2 | 0.00 | 0.14 | 0.14 | 90 | 1008.2 |
| 20260507083806 | 53 | 355 | 9.6 | 14.8 | 0.00 | 0.14 | 0.14 | 90 | 1008.5 |
| 20260507083306 | 53 | 347 | 9.6 | 13.9 | 0.00 | 0.14 | 0.14 | 90 | 1008.7 |
| 20260507081306 | 53 | 357 | 9.6 | 15.6 | 0.07 | 0.14 | 0.14 | 90 | 1008.3 |
| 20260507080806 | 54 | 337 | 10.4 | 15.6 | 0.07 | 0.14 | 0.14 | 90 | 1008.4 |
| 20260507080307 | 54 | 348 | 7.8 | 13.9 | 0.08 | 0.14 | 0.14 | 90 | 1008.5 |
| 20260507073807 | 55 | 330 | 7.0 | 13.0 | 0.14 | 0.14 | 0.14 | 90 | 1008.3 |
| 20260507072806 | 55 | 346 | 6.1 | 10.4 | 0.14 | 0.14 | 0.14 | 90 | 1008.1 |
| 20260507072307 | 55 | 334 | 5.2 | 13.0 | 0.13 | 0.13 | 0.13 | 89 | 1008.8 |
| 20260507071807 | 56 | 350 | 7.8 | 11.3 | 0.12 | 0.12 | 0.12 | 89 | 1008.2 |
| 20260507071306 | 56 | 333 | 7.0 | 12.2 | 0.07 | 0.07 | 0.07 | 88 | 1008.2 |
| 20260507070306 | 56 | 331 | 8.7 | 13.9 | 0.06 | 0.06 | 0.06 | 88 | 1007.9 |
| 20260507064306 | 57 | 352 | 10.4 | 15.6 | 0.02 | 0.02 | 0.02 | 84 | 1007.7 |
| 20260507063807 | 58 | 344 | 11.3 | 17.4 | 0.00 | 0.00 | 0.00 | 83 | 1007.4 |
| 20260507063307 | 59 | 345 | 10.4 | 15.6 | 0.00 | 0.00 | 0.00 | 83 | 1007.6 |
| 20260507062806 | 60 | 359 | 9.6 | 15.6 | 0.00 | 0.00 | 0.00 | 83 | 1007.5 |
| 20260507061807 | 60 | 349 | 8.7 | 13.0 | 0.00 | 0.00 | 0.00 | 87 | 1007.3 |
| 20260507055807 | 60 | 275 | 2.6 | 10.4 | 0.00 | 0.00 | 0.00 | 93 | 1007.3 |
| 20260507055306 | 60 | 245 | 2.6 | 2.6 | 0.00 | 0.00 | 0.00 | 93 | 1007.1 |
| 20260507054306 | 59 | 240 | 1.7 | 6.1 | 0.00 | 0.00 | 0.00 | 93 | 1006.8 |
| 20260507053806 | 59 | 220 | 3.5 | 6.1 | 0.00 | 0.00 | 0.00 | 93 | 1007.2 |
| 20260507053306 | 59 | 236 | 4.3 | 5.2 | 0.00 | 0.00 | 0.00 | 93 | 1007.1 |
| 20260507052307 | 58 | 204 | 1.7 | 2.6 | 0.00 | 0.00 | 0.00 | 93 | 1007.1 |
| 20260507050806 | 59 | 219 | 1.7 | 2.6 | 0.00 | 0.00 | 0.00 | 93 | 1007.1 |